Meacham, OR

2:40 AM PST on February 25, 2017 (GMT -0800)
Meacham

Weather History for KMEH - November, 2012

Change the Weather History Date:

Saturday, November 10, 2012

  Actual Average Record
Temperature  
Mean Temperature 26 °F -  
Max Temperature 30 °F 44 °F 64 °F (2016)
Min Temperature 23 °F 26 °F 19 °F (2014)
Degree Days  
Heating Degree Days 38    
Moisture  
Dew Point 24 °F    
Average Humidity 90    
Maximum Humidity 93    
Minimum Humidity 74    
Precipitation  
Precipitation 0.12 in - - ()
Sea Level Pressure  
Sea Level Pressure 29.96 in    
Wind  
Wind Speed 0 mph (WNW)    
Max Wind Speed 5 mph    
Max Gust Speed -    
Visibility 6 miles    
Events Fog , Snow    
Averages and records for this station are not official NWS values.
T = Trace of Precipitation, MM = Missing Value Source: NWS Daily Summary

Daily Weather History Graph

Daily Weather History Graph

Search for Another Location

Airport or City:

Trip Planner

Search our weather history database for the weather conditions in past years. The results will help you decide how hot, cold, wet, or windy it might be!

Date:

Astronomy

Nov. 10, 2012 Rise Set
Actual Time 6:46 AM PST 4:28 PM PST
Civil Twilight 6:14 AM PST 4:59 PM PST
Nautical Twilight 5:39 AM PST 5:35 PM PST
Astronomical Twilight 5:04 AM PST 6:10 PM PST
Moon 2:47 AM PST (11/10) 2:25 PM PST (11/10)
Length of Visible Light 10h 44m
Length of Day
9h 41m
Waning Crescent, 13% of the Moon is Illuminated
Nov 10
Waning Crescent
Nov 13
New
Nov 20
First Quarter
Nov 28
Full
Dec 6
Last Quarter

Hourly Weather History & Observations

Time (PST) Temp. Windchill Dew Point Humidity Pressure Visibility Wind Dir Wind Speed Gust Speed Precip Events Conditions
12:12 AM 28.4 °F - 26.6 °F 93% 29.77 in 4.0 mi Calm Calm - 0.00 in Snow Light Snow
12:24 AM 28.4 °F - 26.6 °F 93% 29.77 in 2.0 mi Calm Calm - 0.00 in Snow Light Snow
12:34 AM 28.4 °F - 26.6 °F 93% 29.77 in 1.5 mi Calm Calm - 0.01 in Snow Light Snow
12:56 AM 28.0 °F - 26.1 °F 92% 29.84 in 1.2 mi Calm Calm - 0.02 in Snow Light Snow
1:06 AM 28.4 °F - 26.6 °F 93% 29.78 in 2.0 mi Calm Calm - 0.00 in Snow Light Snow
1:12 AM 28.4 °F - 26.6 °F 93% 29.78 in 2.5 mi Calm Calm - 0.00 in Snow Light Snow
1:28 AM 28.4 °F 24.6 °F 26.6 °F 93% 29.78 in 2.5 mi Variable 3.5 mph - 0.00 in Snow Light Snow
1:44 AM 28.4 °F - 26.6 °F 93% 29.79 in 5.0 mi Calm Calm - 0.01 in Snow Light Snow
1:58 AM 28.4 °F - 24.8 °F 86% 29.79 in 6.0 mi Calm Calm - 0.00 in Snow Light Snow
2:10 AM 28.4 °F 24.6 °F 26.6 °F 93% 29.79 in 4.0 mi Variable 3.5 mph - 0.00 in Snow Light Snow
2:22 AM 28.4 °F - 26.6 °F 93% 29.79 in 6.0 mi Calm Calm - 0.00 in Snow Light Snow
2:56 AM 27.0 °F - 25.0 °F 92% 29.88 in 10.0 mi Calm Calm - 0.00 in   Overcast
3:03 AM 26.6 °F - 24.8 °F 93% 29.80 in 10.0 mi Calm Calm - N/A   Overcast
3:13 AM 26.6 °F - 24.8 °F 93% 29.81 in 10.0 mi Calm Calm - N/A   Overcast
3:29 AM 26.6 °F - 24.8 °F 93% 29.81 in 10.0 mi Calm Calm - N/A   Overcast
3:56 AM 27.0 °F - 25.0 °F 92% 29.90 in 10.0 mi Calm Calm - N/A   Overcast
4:02 AM 26.6 °F - 24.8 °F 93% 29.82 in 10.0 mi Calm Calm - N/A   Overcast
4:18 AM 26.6 °F - 24.8 °F 93% 29.82 in 2.5 mi Calm Calm - 0.00 in Snow Light Snow
4:26 AM 26.6 °F - 24.8 °F 93% 29.82 in 1.2 mi Calm Calm - 0.00 in Snow Light Snow
4:34 AM 26.6 °F - 24.8 °F 93% 29.82 in 3.0 mi Calm Calm - 0.01 in Snow Light Snow
4:56 AM 27.0 °F 23.0 °F 25.0 °F 92% 29.91 in 3.0 mi North 3.5 mph - 0.01 in Snow Light Snow
5:36 AM 26.6 °F - 24.8 °F 93% 29.83 in 3.0 mi Calm Calm - 0.00 in Snow Light Snow
5:49 AM 26.6 °F - 24.8 °F 93% 29.83 in 1.8 mi Calm Calm - 0.01 in Snow Light Snow
5:56 AM 27.0 °F 23.0 °F 25.0 °F 92% 29.91 in 0.5 mi Variable 3.5 mph - 0.02 in Fog , Snow Snow
6:18 AM 26.6 °F - 24.8 °F 93% 29.84 in 2.0 mi Calm Calm - 0.01 in Snow Light Snow
6:26 AM 26.6 °F - 24.8 °F 93% 29.84 in 9.0 mi Calm Calm - 0.01 in   Overcast
6:56 AM 25.0 °F - 23.0 °F 92% 29.95 in 10.0 mi Calm Calm - 0.01 in   Mostly Cloudy
7:08 AM 24.8 °F - 21.2 °F 86% 29.87 in 10.0 mi Calm Calm - N/A   Partly Cloudy
7:56 AM 24.1 °F - 21.9 °F 91% 29.97 in 10.0 mi Calm Calm - N/A   Scattered Clouds
8:56 AM 28.0 °F - 23.0 °F 81% 29.98 in 10.0 mi Calm Calm - N/A   Partly Cloudy
9:21 AM 28.4 °F - 23.0 °F 80% 29.91 in 10.0 mi Calm Calm - N/A   Mostly Cloudy
9:56 AM 28.0 °F 24.2 °F 23.0 °F 81% 30.00 in 10.0 mi Variable 3.5 mph - N/A   Overcast
10:06 AM 28.4 °F - 23.0 °F 80% 29.92 in 10.0 mi Calm Calm - N/A   Overcast
10:41 AM 28.4 °F - 21.2 °F 74% 29.92 in 10.0 mi Calm Calm - N/A   Overcast
10:56 AM 28.9 °F - 21.9 °F 75% 30.01 in 10.0 mi Calm Calm - N/A   Mostly Cloudy
11:12 AM 28.4 °F 24.6 °F 24.8 °F 86% 29.93 in 10.0 mi West 3.5 mph - N/A   Mostly Cloudy
11:25 AM 28.4 °F - 24.8 °F 86% 29.93 in 10.0 mi Calm Calm - N/A   Mostly Cloudy
11:56 AM 28.9 °F 25.2 °F 24.1 °F 82% 30.01 in 3.0 mi Variable 3.5 mph - 0.00 in Snow Light Snow
12:56 PM 30.0 °F 25.2 °F 24.1 °F 79% 30.03 in 10.0 mi West 4.6 mph - 0.00 in   Mostly Cloudy
1:25 PM 28.4 °F 24.6 °F 24.8 °F 86% 29.95 in 4.0 mi Variable 3.5 mph - 0.00 in Snow Light Snow
1:35 PM 28.4 °F 23.3 °F 23.0 °F 80% 29.96 in 2.0 mi WNW 4.6 mph - 0.00 in Snow Light Snow
1:48 PM 28.4 °F - 24.8 °F 86% 29.96 in 4.0 mi Calm Calm - 0.00 in Snow Light Snow
1:56 PM 28.0 °F - 24.1 °F 85% 30.05 in 5.0 mi Calm Calm - 0.00 in Snow Light Snow
2:23 PM 28.4 °F - 24.8 °F 86% 29.97 in 9.0 mi Calm Calm - 0.00 in   Overcast
2:56 PM 28.0 °F - 24.1 °F 85% 30.06 in 2.5 mi Calm Calm - 0.00 in Snow Light Snow
3:04 PM 26.6 °F - 24.8 °F 93% 29.98 in 1.0 mi Calm Calm - 0.01 in Snow Light Snow
3:26 PM 26.6 °F - 24.8 °F 93% 29.99 in 0.8 mi Calm Calm - 0.02 in Snow Light Snow
3:40 PM 26.6 °F - 24.8 °F 93% 30.00 in 0.2 mi Calm Calm - 0.02 in Fog , Snow Snow
3:56 PM 26.1 °F - 24.1 °F 92% 30.09 in 0.2 mi Calm Calm - 0.04 in Fog , Snow Heavy Snow
4:12 PM 26.6 °F - 24.8 °F 93% 30.00 in 0.5 mi Calm Calm - 0.01 in Fog , Snow Snow
4:20 PM 26.6 °F - 24.8 °F 93% 30.00 in 0.2 mi Calm Calm - 0.01 in Fog , Snow Snow
4:25 PM 26.6 °F - 24.8 °F 93% 30.00 in 0.5 mi Calm Calm - 0.02 in Fog , Snow Snow
4:40 PM 26.6 °F - 23.0 °F 86% 30.01 in 1.5 mi Calm Calm - 0.02 in Snow Light Snow
4:46 PM 26.6 °F - 24.8 °F 93% 30.01 in 3.0 mi Calm Calm - 0.02 in Snow Light Snow
4:56 PM 26.1 °F - 24.1 °F 92% 30.11 in 2.5 mi Calm Calm - 0.02 in Snow Light Snow
5:03 PM 26.6 °F - 24.8 °F 93% 30.02 in 2.0 mi Calm Calm - 0.00 in Snow Light Snow
5:18 PM 26.6 °F - 24.8 °F 93% 30.03 in 4.0 mi Calm Calm - 0.00 in Snow Light Snow
5:25 PM 26.6 °F - 23.0 °F 86% 30.03 in 7.0 mi Calm Calm - 0.00 in Snow Light Snow
5:56 PM 25.0 °F - 23.0 °F 92% 30.13 in 8.0 mi Calm Calm - 0.00 in   Overcast
6:56 PM 25.0 °F - 23.0 °F 92% 30.14 in 10.0 mi Calm Calm - N/A   Overcast
7:26 PM 24.8 °F - 23.0 °F 93% 30.05 in 10.0 mi Calm Calm - N/A   Overcast
7:56 PM 25.0 °F - 23.0 °F 92% 30.16 in 10.0 mi Calm Calm - N/A   Mostly Cloudy
8:05 PM 24.8 °F - 21.2 °F 86% 30.05 in 9.0 mi Calm Calm - N/A   Mostly Cloudy
8:17 PM 24.8 °F - 21.2 °F 86% 30.06 in 10.0 mi Calm Calm - N/A   Mostly Cloudy
8:29 PM 24.8 °F - 21.2 °F 86% 30.06 in 10.0 mi Calm Calm - N/A   Mostly Cloudy
8:38 PM 24.8 °F - 21.2 °F 86% 30.06 in 10.0 mi Calm Calm - N/A   Overcast
8:56 PM 25.0 °F - 23.0 °F 92% 30.16 in 10.0 mi Calm Calm - N/A   Overcast
9:10 PM 24.8 °F - 23.0 °F 93% 30.07 in 10.0 mi Calm Calm - N/A   Overcast
9:49 PM 24.8 °F - 23.0 °F 93% 30.08 in 10.0 mi Calm Calm - N/A   Overcast
9:56 PM 25.0 °F - 23.0 °F 92% 30.17 in 10.0 mi Calm Calm - N/A   Overcast
10:14 PM 24.8 °F - 23.0 °F 93% 30.08 in 10.0 mi Calm Calm - N/A   Overcast
10:56 PM 24.1 °F - 21.9 °F 91% 30.19 in 9.0 mi Calm Calm - N/A   Overcast
11:47 PM 23.0 °F - 21.2 °F 93% 30.10 in 10.0 mi Calm Calm - N/A   Overcast
11:56 PM 23.0 °F - 21.0 °F 92% 30.20 in 10.0 mi Calm Calm - N/A   Overcast